FW5122 Weather Reports


Display with metric or nautical units.
time (UTC)temp
F
wind
direction
speed
MPH
gust
MPH
rain 1hr
in
rain 24hr
in
rain mn
in
humidity
%
barometer
mb
20260507234435 69 60 2.0 10.0 0.00 0.00 0.00 61 1015.8
20260507233733 69 14 8.0 10.0 0.00 0.00 0.00 61 1015.8
20260507232333 69 346 5.0 10.0 0.00 0.00 0.00 60 1015.8
20260507230934 69 34 5.0 10.0 0.00 0.00 0.00 60 1015.8
20260507230233 69 40 5.0 10.0 0.00 0.00 0.00 60 1015.8
20260507225533 70 15 2.0 8.0 0.00 0.00 0.00 60 1015.8
20260507224133 70 24 5.0 10.0 0.00 0.00 0.00 59 1015.8
20260507222733 70 27 2.0 10.0 0.00 0.00 0.00 59 1015.8
20260507222033 70 5 0.0 10.0 0.00 0.00 0.00 58 1016.2
20260507214533 72 7 0.0 6.0 0.00 0.00 0.00 55 1015.8
20260507213833 72 2 0.0 6.0 0.00 0.00 0.00 55 1016.5
20260507213133 72 0 0.0 6.0 0.00 0.00 0.00 55 1016.5
20260507212433 72 19 8.0 6.0 0.00 0.00 0.00 55 1016.5
20260507211733 72 7 2.0 6.0 0.00 0.00 0.00 55 1016.5
20260507211033 72 6 0.0 6.0 0.00 0.00 0.00 54 1016.5
20260507210333 72 38 5.0 6.0 0.00 0.00 0.00 55 1016.5
20260507205633 72 10 5.0 6.0 0.00 0.00 0.00 54 1016.8
20260507204933 73 44 5.0 6.0 0.00 0.00 0.00 54 1016.5
20260507204232 73 12 0.0 6.0 0.00 0.00 0.00 53 1016.5
20260507203533 73 39 5.0 8.0 0.00 0.00 0.00 53 1016.5
20260507202833 73 20 0.0 8.0 0.00 0.00 0.00 53 1016.2
20260507202132 73 359 5.0 8.0 0.00 0.00 0.00 52 1016.8
20260507201433 73 9 0.0 8.0 0.00 0.00 0.00 52 1016.8
20260507200733 73 4 2.0 8.0 0.00 0.00 0.00 52 1016.8
20260507200033 73 8 0.0 8.0 0.00 0.00 0.00 52 1017.2
20260507195333 73 356 2.0 8.0 0.00 0.00 0.00 52 1017.2
20260507194633 74 22 8.0 8.0 0.00 0.00 0.00 52 1017.2
20260507193932 74 11 2.0 8.0 0.00 0.00 0.00 51 1017.5
20260507193232 74 5 5.0 8.0 0.00 0.00 0.00 52 1017.5
20260507191133 74 15 8.0 10.0 0.00 0.00 0.00 53 1017.9
20260507190432 74 351 2.0 10.0 0.00 0.00 0.00 52 1017.5
20260507185733 74 344 5.0 10.0 0.00 0.00 0.00 51 1017.9
20260507185033 74 10 8.0 10.0 0.00 0.00 0.00 51 1017.9
20260507184332 74 33 8.0 10.0 0.00 0.00 0.00 53 1017.9
20260507183632 74 8 2.0 10.0 0.00 0.00 0.00 53 1017.9
20260507181532 72 14 5.0 10.0 0.00 0.00 0.00 54 1018.2
20260507180833 72 4 5.0 10.0 0.00 0.00 0.00 51 1018.2
20260507175432 72 13 11.0 10.0 0.00 0.00 0.00 55 1018.5
20260507174733 71 344 5.0 8.0 0.00 0.00 0.00 57 1018.5
20260507173332 70 4 2.0 8.0 0.00 0.00 0.00 56 1018.9
20260507172632 70 334 8.0 8.0 0.00 0.00 0.00 56 1019.2
20260507171932 70 0 5.0 8.0 0.00 0.00 0.00 58 1019.2
20260507171232 69 41 8.0 8.0 0.00 0.00 0.00 59 1019.2
20260507170532 69 339 2.0 10.0 0.00 0.00 0.00 58 1019.6
20260507165832 69 15 5.0 10.0 0.00 0.00 0.00 61 1019.6
20260507164432 69 346 5.0 10.0 0.00 0.00 0.00 61 1019.9
20260507163732 68 17 2.0 10.0 0.00 0.00 0.00 63 1019.9
20260507163033 68 334 5.0 10.0 0.00 0.00 0.00 61 1019.9
20260507162332 68 31 2.0 10.0 0.00 0.00 0.00 63 1020.2
20260507160932 67 356 8.0 8.0 0.00 0.00 0.00 65 1020.2
20260507160232 67 351 5.0 6.0 0.00 0.00 0.00 66 1019.9
20260507155533 66 357 5.0 6.0 0.00 0.00 0.00 66 1020.2
20260507154832 66 345 5.0 6.0 0.00 0.00 0.00 67 1020.2
20260507154132 65 6 5.0 6.0 0.00 0.00 0.00 67 1020.2
20260507152732 65 354 5.0 6.0 0.00 0.00 0.00 70 1020.2
20260507152032 64 5 2.0 6.0 0.00 0.00 0.00 70 1020.2
20260507151335 64 1 5.0 6.0 0.00 0.00 0.00 72 1020.6
20260507150632 63 8 0.0 6.0 0.00 0.00 0.00 72 1020.6
20260507145933 63 352 2.0 6.0 0.00 0.00 0.00 73 1020.6
20260507145232 62 2 5.0 6.0 0.00 0.00 0.00 73 1020.6
20260507144532 62 2 5.0 6.0 0.00 0.00 0.00 74 1020.6
20260507143832 61 31 5.0 4.0 0.00 0.00 0.00 75 1020.6
20260507142432 60 25 5.0 4.0 0.00 0.00 0.00 76 1020.6
20260507141732 60 7 5.0 4.0 0.00 0.00 0.00 77 1020.6
20260507141032 60 6 0.0 4.0 0.00 0.00 0.00 78 1020.6
20260507140332 59 10 5.0 4.0 0.00 0.00 0.00 79 1020.6
20260507135632 59 356 5.0 4.0 0.00 0.00 0.00 79 1020.9
20260507134932 59 358 2.0 4.0 0.00 0.00 0.00 80 1021.2
20260507134232 58 5 2.0 4.0 0.00 0.00 0.00 82 1020.9
20260507133532 58 3 0.0 4.0 0.00 0.00 0.00 83 1021.2
20260507132832 57 3 0.0 2.0 0.00 0.00 0.00 83 1021.2
20260507132132 57 356 2.0 2.0 0.00 0.00 0.00 84 1021.2
20260507131432 57 4 0.0 0.0 0.00 0.00 0.00 85 1021.2
20260507130740 56 4 0.0 0.0 0.00 0.00 0.00 86 1021.2
20260507125532 55 0 0.0 0.0 0.00 0.00 0.00 87 1021.2
20260507124832 55 359 0.0 0.0 0.00 0.00 0.00 87 1021.2
20260507124132 54 1 0.0 0.0 0.00 0.00 0.00 87 1021.2
20260507123432 54 1 0.0 0.0 0.00 0.00 0.00 87 1020.6
20260507122732 53 5 0.0 0.0 0.00 0.00 0.00 87 1020.9
20260507121332 53 5 0.0 0.0 0.00 0.00 0.00 86 1020.6
20260507120633 53 5 0.0 0.0 0.00 0.00 0.00 86 1020.6
20260507115932 53 9 0.0 0.0 0.00 0.00 0.00 86 1020.6
20260507115232 53 9 0.0 0.0 0.00 0.00 0.00 86 1020.6
20260507113831 53 2 0.0 0.0 0.00 0.00 0.00 86 1020.6
20260507113132 53 2 0.0 0.0 0.00 0.00 0.00 86 1020.2
20260507112431 53 2 0.0 0.0 0.00 0.00 0.00 85 1020.2
20260507111031 53 2 0.0 0.0 0.00 0.00 0.00 85 1019.9
20260507110331 53 2 0.0 0.0 0.00 0.00 0.00 85 1020.2
20260507105632 53 2 0.0 0.0 0.00 0.00 0.00 85 1020.2
20260507104932 53 1 0.0 0.0 0.00 0.00 0.00 85 1019.6
20260507104231 53 1 0.0 0.0 0.00 0.00 0.00 85 1019.2
20260507103532 53 2 0.0 0.0 0.00 0.00 0.00 84 1019.2
20260507102832 53 3 0.0 0.0 0.00 0.00 0.00 84 1019.2
20260507102132 53 3 0.0 0.0 0.00 0.00 0.00 84 1019.2
20260507100732 53 3 0.0 2.0 0.00 0.00 0.00 83 1018.9
20260507100031 53 5 0.0 2.0 0.00 0.00 0.00 83 1018.9
20260507095331 54 5 0.0 2.0 0.00 0.00 0.00 82 1018.5
20260507094631 54 5 0.0 2.0 0.00 0.00 0.00 82 1018.5
20260507093931 54 5 0.0 2.0 0.00 0.00 0.00 82 1018.5
20260507092531 55 5 0.0 2.0 0.00 0.00 0.00 81 1018.5
20260507091831 55 7 0.0 2.0 0.00 0.00 0.00 81 1018.5
20260507091131 55 8 0.0 2.0 0.00 0.00 0.00 81 1018.5
20260507090432 55 359 0.0 2.0 0.00 0.00 0.00 81 1018.5
20260507085731 55 11 0.0 2.0 0.00 0.00 0.00 81 1018.2
20260507084332 55 1 0.0 4.0 0.00 0.00 0.00 81 1018.5
20260507083631 56 1 0.0 4.0 0.00 0.00 0.00 81 1018.5
20260507082931 56 9 0.0 4.0 0.00 0.00 0.00 81 1018.5
20260507082231 56 5 0.0 4.0 0.00 0.00 0.00 81 1018.5
20260507080831 56 10 0.0 4.0 0.00 0.00 0.00 80 1018.5
20260507080132 56 1 0.0 4.0 0.00 0.00 0.00 80 1018.5
20260507075431 56 12 0.0 4.0 0.00 0.00 0.00 80 1017.9
20260507074031 56 357 5.0 6.0 0.00 0.00 0.00 80 1017.9
20260507073331 57 4 0.0 6.0 0.00 0.00 0.00 80 1017.5
20260507070531 57 9 2.0 6.0 0.00 0.00 0.00 79 1017.9
20260507065832 57 7 0.0 6.0 0.00 0.00 0.00 79 1017.9
20260507065131 57 1 0.0 6.0 0.00 0.00 0.00 79 1017.9
20260507064431 57 14 2.0 6.0 0.00 0.00 0.00 78 1017.9
20260507063731 57 7 0.0 8.0 0.00 0.00 0.00 78 1017.9
20260507063031 57 20 5.0 8.0 0.00 0.00 0.00 78 1017.5
20260507062331 58 10 0.0 8.0 0.00 0.00 0.00 78 1017.9
20260507061631 58 6 2.0 8.0 0.00 0.00 0.00 78 1017.9
20260507060931 58 5 0.0 8.0 0.00 0.00 0.00 78 1017.5
20260507060231 58 9 2.0 8.0 0.00 0.00 0.00 77 1017.9
20260507054831 59 35 5.0 8.0 0.00 0.00 0.00 77 1017.5
20260507054131 59 6 2.0 6.0 0.00 0.00 0.00 77 1017.5
20260507053431 59 4 2.0 6.0 0.00 0.00 0.00 77 1017.5
20260507052731 59 27 2.0 6.0 0.00 0.00 0.00 77 1017.5
20260507052031 59 295 5.0 6.0 0.00 0.00 0.00 77 1017.9
20260507051331 59 5 2.0 6.0 0.00 0.00 0.00 76 1017.9
20260507050631 59 6 5.0 8.0 0.00 0.00 0.00 76 1017.5
20260507045231 60 8 0.0 8.0 0.00 0.00 0.15 76 1017.5
20260507044531 60 345 5.0 8.0 0.00 0.00 0.15 76 1017.5
20260507043831 60 9 2.0 8.0 0.00 0.00 0.15 76 1017.9
20260507043131 60 353 5.0 8.0 0.00 0.00 0.15 76 1017.9
20260507042431 60 13 5.0 8.0 0.00 0.00 0.15 76 1017.9
20260507041731 60 9 5.0 8.0 0.00 0.00 0.15 76 1018.2
20260507041031 60 1 5.0 8.0 0.00 0.00 0.15 76 1018.2
20260507035631 60 6 8.0 8.0 0.00 0.00 0.15 76 1018.2
20260507034931 60 12 2.0 8.0 0.00 0.00 0.15 76 1018.2
20260507034230 60 26 8.0 8.0 0.00 0.00 0.15 76 1017.9
20260507033531 60 3 5.0 8.0 0.00 0.00 0.15 76 1018.2
20260507032831 60 6 5.0 10.0 0.00 0.00 0.15 76 1017.9
20260507032131 60 3 8.0 10.0 0.00 0.00 0.15 76 1017.9
20260507031431 60 4 5.0 10.0 0.00 0.00 0.15 76 1017.9
20260507030731 60 8 2.0 10.0 0.00 0.00 0.15 76 1017.5
20260507030031 60 8 2.0 10.0 0.00 0.00 0.15 76 1017.9
20260507025331 60 2 8.0 10.0 0.00 0.00 0.15 76 1017.9
20260507024631 60 3 2.0 10.0 0.00 0.00 0.15 77 1017.5
20260507023930 60 346 11.0 10.0 0.00 0.00 0.15 77 1017.2
20260507023230 60 6 2.0 10.0 0.00 0.00 0.15 77 1017.2
20260507022530 60 7 2.0 10.0 0.00 0.00 0.15 77 1016.8
20260507021131 60 2 2.0 10.0 0.00 0.00 0.15 77 1016.8
20260507020430 60 357 8.0 8.0 0.00 0.00 0.15 77 1016.5
20260507015730 60 334 5.0 6.0 0.00 0.00 0.15 77 1016.5
20260507015030 60 5 5.0 6.0 0.00 0.00 0.15 77 1016.2
20260507014332 60 352 5.0 6.0 0.00 0.00 0.15 78 1015.8
20260507013631 60 8 5.0 6.0 0.00 0.00 0.15 77 1015.8
20260507012931 60 340 5.0 6.0 0.00 0.00 0.15 77 1015.8
20260507012231 60 35 2.0 6.0 0.00 0.00 0.15 77 1015.8
20260507011531 60 27 5.0 6.0 0.00 0.00 0.15 77 1015.8
20260507010830 60 347 5.0 6.0 0.00 0.00 0.15 77 1015.5
20260507010131 60 352 5.0 6.0 0.00 0.00 0.15 77 1015.5
20260507005430 60 354 8.0 6.0 0.00 0.00 0.15 77 1015.5
20260507004031 60 1 5.0 8.0 0.00 0.00 0.15 76 1015.1
20260507003331 61 342 8.0 8.0 0.00 0.00 0.15 76 1015.1
20260507002630 61 6 5.0 8.0 0.00 0.00 0.15 76 1015.5
20260507001230 61 1 5.0 8.0 0.00 0.00 0.15 75 1014.8
20260506235831 61 6 0.0 8.0 0.00 0.00 0.15 75 1014.8
20260506235133 61 9 2.0 8.0 0.00 0.00 0.15 75 1014.8